Location: *
(44.3925°N, 5.4708°E)
Time: 09:08:54
(UTC+00:00)

SL-16 R/B - Pass Details

Date: 18 September 2019
Orbit: 840 x 849 km, 71.0° (Epoch: 17 October)

Event Time Altitude Azimuth Distance (km) Brightness Sun altitude
Rises 18:28:26 0° 344° (NNW) 3,414 5.7 -8.7°
Reaches altitude 10° 18:32:06 10° 8° (N) 2,477 4.7 -9.4°
Maximum altitude 18:35:13 15° 42° (NE) 2,153 4.0 -9.9°
Drops below altitude 10° 18:38:20 10° 75° (ENE) 2,474 4.1 -10.5°
Enters shadow 18:38:24 10° 76° (ENE) 2,487 4.1 -10.5°
